Location: Dana
(41.8364°N, 106.7042°W)
Time: 12:09:47
(UTC+00:00)

Injun/Solrad 3 - Pass Details

Date: 16 May 2026
Orbit: 867 x 989 km, 66.8° (Epoch: 11 June)

Event Time Altitude Azimuth Distance (km) Brightness Sun altitude
Rises 22:34:56 0° 217° (SW) 3,502 11.4 40.1°
Reaches altitude 10° 22:37:24 10° 220° (SW) 2,582 11.0 39.6°
Maximum altitude 22:43:22 66° 303° (WNW) 1,008 9.2 38.6°
Drops below altitude 10° 22:49:36 10° 26° (NNE) 2,683 10.1 37.4°
Sets 22:52:13 0° 29° (NNE) 3,649 10.7 36.9°
